Find Starlink 1587

NORAD ID: 46157 Int'l Des: 2020-057 Owner: SPXS Country: US Constellation: starlink decayed
LEOCIRCULAR

Re-entered — Mar 22, 2026

Loading 3D Globe...

About Starlink 1587

Starlink 1587 (NORAD 46157) is a starlink constellation satellite (v1.0) launched Aug 18, 2020 by SPXS of US. It re-entered the atmosphere on Mar 22, 2026. with a mass of 260.00 kg.

About Starlink 1587

Description loading...

Altitude History

Loading altitude history...

Two-Line Element Set

1 46157U 20057AS 26081.60494785 .09504374 12350-4 10024-2 0 9993
2 46157 53.0153 148.6663 0005528 324.5132 35.5544 16.36810891309557
Epoch: Mar 22, 2026 • Age: 1979 hours

Current Status

Position data unavailable
Launch Date Aug 18, 2020
Age 5.8 years
Decay Date Mar 22, 2026
Type internet

Technical Details

Classification Payload
Mass 260.00 kg
Dry Mass 248.00 kg
Total Mass 260.00 kg
Length 0.20 m
Diameter 2.80 m
Span 9.00 m
Shape Box + pan
Manufacturer SPXS
Bus Type Starlink
Phase Status Unknown Transfer Status
Owner/State SPXS/US

Most Searched